World > North America > United States > South Carolina > Neeses  

Neeses, SC Hourly Weather Updates

Feedback E-mail the Weather

Quick Clicks

Neeses, SC Weather Maps

°F °C°F °C
Neeses Weather Map
UTC Time: 4/15/2024, 20:57
Your Time:

Neeses, SC Regional Weather

Expires:202404152100;;798236
ASUS42 KCAE 152010
RWRCAE
REGIONAL WEATHER ROUNDUP
NATIONAL WEATHER SERVICE COLUMBIA SC
400 PM EDT MON APR 15 2024

NOTE: "FAIR" INDICATES FEW OR NO CLOUDS BELOW 12,000 FEET WITH NO
SIGNIFICANT WEATHER AND/OR OBSTRUCTIONS TO VISIBILITY.

NOT ALL STATIONS ARE QUALITY CONTROLLED BY THE NATIONAL 
WEATHER SERVICE. USE DATA WITH CAUTION...ESPECIALLY 
DEWPOINT OBSERVATIONS.


SCZ001>059-115-116-135>137-GAZ040-063>065-077-152100-
...UPSTATE SOUTH CAROLINA...
  
CITY           SKY/WX    TMP DP  RH WIND       PRES   REMARKS
ANDERSON       SUNNY     84  54  35 SW16      30.00F                  
LIBERTY        SUNNY     84  56  38 SW13G18   29.98F                  
SPARTANBURG    SUNNY     86  46  25 W9        29.97F                  
CLEMSON        SUNNY     83  56  39 SW9       29.99F                  
GREENVILLE     SUNNY     84  50  30 SW14G23   29.98F                  
GREENWOOD      SUNNY     84  51  31 SW15G23   30.00F                  
GREER          SUNNY     86  51  29 S17       29.98F                  
ROCK HILL      SUNNY     86  52  30 SW12G18   29.95F                  
CHESTER        SUNNY     84  48  28 SW8       29.97F                  
LAURENS        SUNNY     86  50  28 SW10G20   29.98F                  


...CENTRAL SOUTH CAROLINA...
  
CITY           SKY/WX    TMP DP  RH WIND       PRES   REMARKS
COLUMBIA APT   SUNNY     87  51  28 W15G25    29.97F                  
COLUMBIA OWENS SUNNY     87  45  23 W13G24    29.98F                  
MCENTIRE ANGB  SUNNY     89  46  22 SW14      29.96F                  
ORANGEBURG     SUNNY     89  53  29 W16G22    30.00F                  
SUMTER SHAW    SUNNY     90  50  25 W9        29.96F                  
AIKEN          SUNNY     86  50  28 SW17      30.02F                  
BARNWELL       SUNNY     86  50  28 SW13G18   30.01F                  
MANNING        SUNNY     86  52  30 W13       29.99F                  
CAMDEN         SUNNY     88  46  23 W14       29.97F                  
LANCASTER      SUNNY     86  48  26 S13G18    29.96F                  
WINNSBORO      SUNNY     86  50  28 SW12      29.98F                  


...EASTERN AND COASTAL SOUTH CAROLINA...
  
CITY           SKY/WX    TMP DP  RH WIND       PRES   REMARKS
MYRTLE BEACH   SUNNY     76  62  62 S17       29.98F                  
N MYRTLE BCH   SUNNY     76  61  59 SW18G26   29.97F                  
CONWAY         SUNNY     88  52  29 SW10G20   29.97F                  
MARION         SUNNY     86  52  30 W8G20     29.96F                  
HARTSVILLE     SUNNY     88  43  20 SW8G18    29.96F                  
FLORENCE       SUNNY     88  53  30 W12G21    29.96F                  
DARLINGTON     SUNNY     88  51  28 SW12      29.96F                  
CHARLESTON APT SUNNY     88  53  30 W13       30.00F                  
MOUNT PLEASANT SUNNY     82  61  47 S14G22    30.00F                  
WALTERBORO     SUNNY     86  52  30 SW14      30.02F                  
BEAUFORT       SUNNY     82  61  48 S9G20     30.03F                  
HILTON HEAD    SUNNY     79  59  50 MISG      30.05F                  


...EASTERN GEORGIA...
  
CITY           SKY/WX    TMP DP  RH WIND       PRES   REMARKS
AUGUSTA BUSH F SUNNY     87  46  24 SW15G22   29.99F                  
AUGUSTA DANIEL SUNNY     86  47  25 VRB5      30.01F                  
THOMSON        SUNNY     86  48  26 SW13G18   30.02F                  
WASHINGTON     SUNNY     84  49  29 W12       30.02F                  
CLAXTON        SUNNY     86  46  24 W7        30.05F                  
STATESBORO     SUNNY     84  49  29 W10G16    30.04F                  
SAVANNAH       SUNNY     86  51  29 SW8       30.03F                  


...SOUTHERN NORTH CAROLINA...
  
CITY           SKY/WX    TMP DP  RH WIND       PRES   REMARKS
CHARLOTTE      MOSUNNY   86  50  28 SW5G17    29.95F                  
MONROE         SUNNY     86  53  32 SW16G22   29.94F                  
WADESBORO      SUNNY     87  47  25 SW10      29.93F                  
ROCKINGHAM     SUNNY     88  47  24 SW16      29.94F                  
RUTHERFORDTON  SUNNY     82  46  28 S10G20    29.97F                  
ASHEVILLE      SUNNY     83  51  33 S5        30.00F                  

$$
  

SKY/WX - Weather  TMP - Temperature  DP - Dew Point  RH - Humidity
WIND - Wind Direction/Speed PRES - Barometric Pressure VSB - Visibility
WCI - Wind Chill Index E13G22 Wind - East Wind 13 mph/Gusts of 22 mph

Trending Headlines

Trending Entertainment Headlines

Neeses Radar Loop

Use the map search tool if you want to place a location marker on the radar map...

Neeses Quick Facts

National Two Day Weather Forecast


E-mail the Neeses Weather Forecast

Voice your opinion or tell us about page issues...